This is the latest recevied weather packets stored in our database for station/object N4PWG. If no packets are shown the sender has not sent any weather packets the latest 10 day(s).
| Time | Temp. | Humidity | Pressure | Rain* | Wind** | Luminosity | Snow |
|---|---|---|---|---|---|---|---|
| 1777549110 | 8.89° C | 85% | 1034.7 hPa | 0 mm | - | 17 W/m² | - |
| 1777548806 | 8.89° C | 85% | 1034.9 hPa | 0 mm | - | 14 W/m² | - |
| 1777548503 | 8.89° C | 86% | 1034.8 hPa | 0 mm | - | 12 W/m² | - |
| 1777548200 | 8.89° C | 86% | 1035.2 hPa | 0 mm | - | 10 W/m² | - |
| 1777547896 | 8.89° C | 84% | 1035 hPa | 0 mm | - | 7 W/m² | - |
| 1777547592 | 8.89° C | 84% | 1035.1 hPa | 0 mm | - | 4 W/m² | - |
| 1777547290 | 8.89° C | 85% | 1034.7 hPa | 0 mm | - | 2 W/m² | - |
| 1777546986 | 8.89° C | 84% | 1034.5 hPa | 0 mm | - | 0 W/m² | - |
| 1777546684 | 8.89° C | 87% | 1034.7 hPa | 0 mm | - | 0 W/m² | - |
| 1777546380 | 8.33° C | 89% | 1034.2 hPa | 0 mm | - | 0 W/m² | - |
| 1777546078 | 8.33° C | 89% | 1034.5 hPa | 0 mm | - | 0 W/m² | - |
| 1777545773 | 8.33° C | 90% | 1034.2 hPa | 0 mm | - | 0 W/m² | - |
| 1777545470 | 8.33° C | 90% | 1034.1 hPa | 0 mm | - | 0 W/m² | - |
| 1777545167 | 8.89° C | 89% | 1034.1 hPa | 0 mm | - | 0 W/m² | - |
| 1777544865 | 8.89° C | 89% | 1034.1 hPa | 0 mm | - | 0 W/m² | - |
| 1777544560 | 8.89° C | 89% | 1034 hPa | 0 mm | - | 0 W/m² | - |
| 1777544257 | 8.89° C | 89% | 1034 hPa | 0 mm | - | 0 W/m² | - |
| 1777543955 | 8.89° C | 88% | 1034 hPa | 0 mm | - | 0 W/m² | - |
| 1777543651 | 8.89° C | 88% | 1034 hPa | 0 mm | - | 0 W/m² | - |
| 1777543347 | 9.44° C | 87% | 1033.8 hPa | 0 mm | - | 0 W/m² | - |
| 1777543042 | 9.44° C | 87% | 1033.9 hPa | 0 mm | - | 0 W/m² | - |
| 1777542739 | 9.44° C | 86% | 1033.7 hPa | 0 mm | - | 0 W/m² | - |
| 1777542436 | 9.44° C | 85% | 1033.9 hPa | 0 mm | - | 0 W/m² | - |
| 1777542132 | 9.44° C | 85% | 1033.8 hPa | 0 mm | - | 0 W/m² | - |
| 1777541830 | 10° C | 83% | 1034 hPa | 0 mm | - | 0 W/m² | - |
* Rain latest hour (hover to see other rain measurements)
** Current wind speed in m/s (hover to see current wind gust speed)